SCP
0 0 0 0 0 0 0 0 0 0 0 0 0 0 0 0 0 0 0 0 0 0 0 0 0 0 0 0 0 0 0 0 0 0 0 0 0 0 0 0 0 0 0
0 0 0 0 0 0 0 0 0 0 0 0 0 0 0 0 0 0 0 0 0 0 0 0 0 0 0 0 0 0 0 0 0 0 0 0 0 0 0 0 0 0 0
0 0 0 0 0 0 0 0 0 0 0 0 0 0 0 0 0 0 0 0 0 0 0 0 0 0 0 0 0 0 0 0 0 0 0 0 0 0 0 0 0 0 0
0 0 0 0 0 0 0 0 0 0 0 0 0 0 0 0 0 0 0 0 0 0 0 0 0 0 0 0 0 0 0 0 0 0 0 0 0 0 0 0 0 0 0
0 0 0 0 0 0 0 0 0 0 0 0 0 0 0 0 0 0 0 0 0 0 0 0 0 0 0 0 0 0 0 0 0 0 0 0 0 0 0 0 0 0 0
0 0 0 0 0 0 0 0 0 0 0 0 0 0 0 0 0 0 0 0 0 0 0 0 0 0 0 0 0 0 0 0 0 0 0 0 0 0 0 0 0 0 0
0 0 0 0 0 0 0 0 0 0 0 0 0 0 0 0 0 0 0 0 0 0 0 0 0 0 0 0 0 0 0 0 0 0 0 0 0 0 0 0 0 0 0
0 0 0 0 0 0 0 0 0 0 0 0 0 0 0 0 0 0 0 0 0 0 0 0 0 0 0 0 0 0 0 0 0 0 0 0 0 0 0 0 0 0 0
0 0 0 0 0 0 0 0 0 0 0 0 0 0 0 0 0 0 0 0 0 0 0 0 0 0 0 0 0 0 0 0 0 0 0 0 0 0 0 0 0 0 0
0 0 0 0 0 0 0 0 0 0 0 0 0 0 0 0 0 0 0 0 0 0 0 0 0 0 0 0 0 0 0 0 0 0 0 0 0 0 0 0 0 0 0
0 0 0 0 0 0 0 0 0 0 0 0 0 0 0 0 0 0 0 0 0 0 0 0 0 0 0 0 0 0 0 0 0 0 0 0 0 0 0 0 0 0 0
0 0 0 0 0 0 0 0 0 0 0 0 0 0 0 0 0 0 0 0 0 0 0 0 0 0 0 0 0 0 0 0 0 0 0 0 0 0 0 0 0 0 0
0 0 0 0 0 0 0 0 0 0 0 0 0 0 0 0 0 0 0 0 0 0 0 0 0 0 0 0 0 0 0 0 0 0 0 0 0 0 0 0 0 0 0
0 0 0 0 0 0 0 0 0 0 0 0 0 0 0 0 0 0 0 0 0 0 0 0 0 0 0 0 0 0 0 0 0 0 0 0 0 0 0 0 0 0 0
0 0 0 0 0 0 0 0 0 0 0 0 0 0 0 0 0 0 0 0 0 0 0 0 0 0 0 0 0 0 0 0 0 0 0 0 0 0 0 0 0 0 0
0 0 0 0 0 0 0 0 0 0 0 0 0 0 0 0 0 0 0 0 0 0 0 0 0 0 0 0 0 0 0 0 0 0 0 0 0 0 0 0 0 0 0
0 0 0 0 0 0 0 0 0 0 0 0 0 0 0 0 0 0 0 0 0 0 0 0 0 0 0 0 0 0 0 0 0 0 0 0 0 0 0 0 0 0 0
0 0 0 0 0 0 0 0 0 0 0 0 0 0 0 0 0 0 0 0 0 0 0 0 0 0 0 0 0 0 0 0 0 0 0 0 0 0 0 0 0 0 0
0 0 0 0 0 0 0 0 0 0 0 0 0 0 0 0 0 0 0 0 0 0 0 0 0 0 0 0 0 0 0 0 0 0 0 0 0 0 0 0 0 0 0
0 0 0 0 0 0 0 0 0 0 0 0 0 0 0 0 0 0 0 0 0 0 0 0 0 0 0 0 0 0 0 0 0 0 0 0 0 0 0 0 0 0 0
0 0 0 0 0 0 0 0 0 0 0 0 0 0 0 0 0 0 0 0 0 0 0 0 0 0 0 0 0 0 0 0 0 0 0 0 0 0 0 0 0 0 0
0 0 0 0 0 0 0 0 0 0 0 0 0 0 0 0 0 0 0 0 0 0 0 0 0 0 0 0 0 0 0 0 0 0 0 0 0 0 0 0 0 0 0
0 0 0 0 0 0 0 0 0 0 0 0 0 0 0 0 0 0 0 0 0 0 0 0 0 0 0 0 0 0 0 0 0 0 0 0 0 0 0 0 0 0 0
0 0 0 0 0 0 0 0 0 0 0 0 0 0 0 0 0 0 0 0 0 0 0 0 0 0 0 0 0 0 -0 0 0 0 0 0 0 0 0 0 0 0 0
0 0 0 0 0 0 0 0 0 0 0 0 0 0 0 0 0 0 0 0 0 0 0 0 0 0 0 0 0 0 0 0 0 0 0 0 0 0 0 0 0 0 0
0 0 0 0 0 0 0 0 0 0 0 0 0 0 0 0 0 0 0 0 0 0 0 0 0 0 0 0 0 0 0 0 0 0 0 0 0 0 0 0 0 0 0
Wind_Speed
9 9 10 9 9 9 9 9 9 9 10 11 12 12 13 12 12 11 11 12 13 14 12 10 9 9 8 7 7 8 8 7 9 8 7 8 8 7 6 4 2 2 4
9 10 10 10 10 10 10 10 10 11 10 11 11 12 13 13 12 13 13 13 15 15 12 9 8 7 9 8 7 8 8 7 8 9 7 6 7 6 6 5 3 2 2
10 11 11 11 11 11 11 11 11 11 11 11 10 11 12 12 13 12 11 14 15 14 11 8 8 8 8 8 9 8 7 8 7 7 7 6 5 5 5 5 3 2 2
11 11 12 12 12 12 11 12 12 11 11 11 10 11 12 13 14 12 12 13 13 12 9 8 7 8 8 9 8 8 8 8 7 6 6 5 5 5 4 3 2 2 2
11 12 12 11 11 11 11 11 11 11 13 11 11 11 11 12 12 14 12 12 13 12 9 8 8 10 13 10 8 7 7 6 6 5 5 5 4 4 3 2 2 2 1
11 12 12 11 10 10 11 10 10 10 11 10 11 12 12 13 22 25 19 10 11 10 8 7 8 9 12 14 15 14 14 9 7 5 4 5 6 6 5 4 2 3 2
11 11 10 10 11 10 12 11 10 10 10 10 10 11 11 14 25 25 24 14 10 8 7 6 7 9 10 6 9 13 13 17 15 8 6 6 7 8 8 5 3 2 2
10 10 10 11 11 10 10 10 10 9 9 9 10 10 10 15 25 25 23 13 9 8 7 5 6 7 7 7 7 7 8 10 12 9 8 8 9 9 8 5 3 1 3
10 11 12 11 11 11 10 10 9 8 8 8 9 10 10 13 23 24 20 8 8 9 8 8 8 5 10 14 9 8 8 9 14 18 19 17 20 21 16 5 1 3 4
11 12 12 11 11 11 10 9 8 8 9 10 10 10 10 10 21 23 19 6 7 8 8 9 13 11 15 17 9 8 9 8 9 11 13 15 14 17 22 12 6 2 4
12 12 11 10 10 10 8 8 8 9 10 10 10 10 10 13 19 24 22 7 7 8 7 7 9 18 19 20 15 10 14 11 8 8 9 10 10 11 12 12 11 6 4
12 12 11 10 10 10 8 8 8 8 9 9 9 9 8 10 17 20 24 20 15 8 7 6 10 21 21 21 16 19 21 15 8 8 9 10 11 11 10 10 12 12 10
12 12 10 10 8 8 8 7 7 7 7 8 8 8 8 8 11 22 23 23 21 10 8 16 18 21 18 14 21 22 16 10 9 10 10 10 9 10 9 9 10 10 13
12 11 9 9 9 8 7 7 6 7 7 7 8 8 8 7 7 6 7 9 14 10 8 13 18 19 15 16 16 13 10 10 9 9 9 8 8 9 10 10 10 9 10
10 10 9 9 8 7 8 8 9 6 11 8 5 5 7 6 11 18 11 8 6 8 8 6 7 7 8 8 8 8 8 9 9 9 8 8 9 9 10 9 9 9 10
10 9 7 7 7 7 6 7 14 16 19 19 17 14 9 14 17 18 17 17 18 17 10 6 7 7 8 8 8 7 7 8 8 8 8 8 8 8 8 8 9 9 9
10 9 7 8 8 8 8 7 7 11 16 18 18 19 16 15 16 16 16 16 16 15 7 5 5 5 6 6 6 6 6 6 6 6 7 7 7 7 7 8 8 8 8
9 10 10 6 6 6 6 6 6 7 7 7 11 17 17 15 14 13 14 11 7 7 3 3 4 4 4 4 4 4 4 4 5 5 5 5 6 6 6 6 7 8 7
9 7 6 5 6 6 6 6 5 6 6 7 5 8 14 14 13 12 10 3 3 3 3 3 2 3 3 3 3 3 3 3 3 3 4 4 4 4 5 5 6 10 8
8 15 14 7 6 7 6 6 6 6 6 6 6 5 6 5 4 5 4 3 2 2 2 2 2 2 2 2 2 2 2 2 3 3 3 3 3 3 3 4 4 4 4
7 9 16 10 7 7 7 7 6 6 6 7 6 9 13 5 4 5 4 3 3 2 2 2 2 2 2 1 1 2 2 2 1 1 1 2 2 2 2 2 3 3 3
6 6 7 7 7 7 8 7 7 7 8 9 7 9 15 7 5 6 5 5 4 3 3 3 3 3 3 2 2 2 2 2 2 1 1 1 1 1 1 1 1 1 2
6 7 8 8 7 12 11 8 8 9 9 9 9 8 8 7 7 7 7 6 5 5 4 4 4 4 4 3 3 3 3 3 2 2 1 2 2 2 1 1 1 1 0
6 7 8 8 8 8 9 10 10 10 10 10 9 9 8 8 8 9 9 7 7 7 6 6 6 7 8 6 4 4 4 5 4 3 4 4 4 3 2 2 2 3 2
6 7 7 8 9 10 10 11 11 11 12 11 11 10 9 9 9 9 9 8 9 9 10 8 7 7 9 9 7 6 9 12 10 6 5 5 5 5 5 5 4 4 3
6 7 7 7 8 9 10 11 11 12 12 12 12 11 11 10 10 10 9 9 9 9 10 9 10 11 11 9 10 12 15 15 14 13 6 5 6 6 6 5 6 5 5
Wind_Direction
336 330 327 323 323 323 321 321 322 320 322 323 323 324 323 322 323 319 316 319 321 315 310 308 310 314 314 312 310 308 304 294 283 285 287 298 307 312 313 303 278 264 257
333 329 326 325 325 324 322 322 321 319 319 319 321 323 322 323 321 317 318 326 319 315 312 311 314 317 317 316 312 307 305 304 293 291 292 296 296 302 299 296 282 259 244
333 330 327 326 325 323 321 321 319 317 316 318 321 320 320 320 318 314 321 320 317 315 313 317 317 316 317 315 312 310 310 309 299 288 287 288 285 293 294 289 272 243 218
334 329 325 322 319 317 318 319 318 318 319 319 318 318 318 317 313 311 318 316 317 316 315 314 313 313 311 313 314 318 316 313 309 299 289 287 281 282 271 259 254 221 185
326 321 315 312 313 315 318 319 321 323 323 319 319 317 316 315 313 316 315 318 318 314 313 314 315 327 332 336 335 338 337 332 328 321 314 315 311 310 289 274 240 197 150
316 310 310 313 318 320 320 322 323 321 319 320 319 317 317 322 319 322 325 320 318 313 313 318 325 337 341 351 354 8 10 7 358 350 344 343 337 327 312 296 240 186 172
309 310 316 321 322 322 325 327 323 321 321 319 316 315 314 314 322 327 331 336 322 314 318 329 341 345 352 351 6 19 15 16 21 13 0 354 344 337 319 299 273 217 145
314 322 327 325 323 324 326 326 324 321 320 316 316 317 317 320 328 331 339 344 331 331 336 343 344 336 353 27 30 27 21 16 18 19 15 7 1 351 326 290 268 172 95
330 332 330 328 329 330 331 329 326 324 322 320 321 322 322 323 330 336 351 342 344 347 351 0 351 346 27 49 42 29 24 17 18 24 24 23 18 17 15 3 21 149 129
335 332 328 329 330 329 332 331 332 332 332 330 329 329 327 324 334 346 360 353 356 357 359 358 6 32 53 58 45 32 32 19 15 14 17 16 15 17 24 22 10 112 128
331 326 327 330 329 332 334 334 336 337 335 334 332 333 334 343 347 351 6 16 15 8 7 5 16 42 51 52 49 41 41 35 18 18 15 14 14 16 19 21 20 27 69
329 327 329 331 336 343 338 337 337 337 336 336 337 341 343 345 354 359 12 20 30 21 17 17 30 43 44 45 45 42 41 35 24 24 24 20 16 13 11 18 26 34 41
331 330 331 334 336 339 340 339 340 339 339 346 346 346 346 351 353 9 12 14 19 26 22 37 44 45 40 36 38 40 37 32 27 28 26 20 13 9 11 17 24 34 42
331 331 335 338 338 340 342 342 343 340 343 352 348 346 345 348 346 358 1 6 11 20 22 32 38 40 40 38 36 32 27 31 32 27 22 17 14 17 22 21 26 28 43
329 331 336 339 335 339 344 346 348 342 354 358 343 340 349 350 7 17 19 11 13 35 35 26 26 26 29 27 29 29 27 25 28 23 21 21 22 24 25 25 30 38 46
334 335 336 337 338 339 336 341 352 357 358 1 0 5 359 7 14 17 19 23 31 39 39 26 27 26 26 25 25 25 25 25 22 23 21 21 23 25 27 27 34 40 46
330 331 336 339 334 337 341 341 339 346 355 357 356 358 4 7 11 14 22 26 30 36 32 21 22 23 23 21 18 18 19 17 16 21 23 19 21 25 30 33 33 39 44
327 331 338 325 324 326 330 332 333 337 337 337 345 350 356 359 2 9 19 23 16 22 14 15 13 14 17 16 13 11 9 12 12 14 18 18 19 24 29 30 35 41 43
327 323 324 320 320 321 322 323 323 326 326 323 321 334 346 349 352 356 7 7 345 352 356 0 2 3 5 6 3 1 0 4 7 5 14 17 17 25 29 27 33 47 51
326 333 338 331 322 321 319 318 317 314 313 312 312 310 313 325 321 323 326 312 317 318 323 327 327 331 335 339 339 345 346 351 0 6 7 10 12 21 27 30 34 39 41
322 324 333 330 317 316 315 315 311 308 306 307 304 309 320 317 303 298 296 291 281 279 280 282 285 290 290 290 304 317 321 320 327 337 346 357 5 13 15 22 28 36 42
320 320 321 319 319 320 324 321 315 310 306 305 303 306 314 308 290 286 283 279 270 260 253 250 251 250 244 239 241 260 282 292 295 298 313 316 318 321 335 6 22 26 35
323 323 325 325 324 330 333 324 323 319 314 310 304 302 299 291 284 280 275 269 261 257 251 244 243 244 242 235 225 221 231 243 243 233 241 271 278 271 258 242 223 206 232
326 326 327 329 331 332 331 331 328 327 325 319 313 306 297 288 281 277 273 266 260 254 247 240 237 236 239 238 230 223 221 229 225 220 219 228 241 248 242 236 229 216 212
327 329 331 332 334 335 334 333 331 331 330 328 325 319 311 301 290 281 272 264 259 254 249 242 238 236 238 237 231 227 245 255 254 236 211 214 225 227 226 227 223 216 208
329 333 335 335 336 336 335 333 333 332 331 330 329 325 321 315 306 297 286 274 265 257 249 241 235 233 232 231 234 240 250 253 255 257 234 209 222 229 221 219 217 215 209